Home   Weather   Summerville   Past weeks
Flag for USA

Past Weather in Summerville, South Carolina, USA — Yesterday and Last 2 Weeks

Now
71 °F

Passing clouds.


Feels Like: 70 °F
Forecast: 89 / 65 °F
Wind: 15 mph from Southwest

Location: Charleston Air Force Base Reporting Station

Current Time: Mar 28, 2020 at 11:29:22 pm

Latest Report: Mar 28, 2020 at 10:56 pm


Visibility: 10 mi

Pressure: 30.02 "Hg

Humidity: 84%

Dew Point: 66 °F

Location of SummervilleLocation

Past Weather in Summerville — Graph

°F

Summerville Temperature Yesterday

Maximum temperature yesterday: 85 °F (at 1:56 pm)
Minimum temperature yesterday: 58 °F (at 1:56 am)
Average temperature yesterday: 71 °F

High & Low Weather Summary for the Past Weeks

 TemperatureHumidityPressure
High87 °F (Mar 21, 2:56 pm)100% (Mar 15, 7:56 am)30.40 "Hg (Mar 15, 7:56 am)
Low52 °F (Mar 23, 4:56 am)28% (Mar 14, 11:56 am)29.76 "Hg (Mar 25, 7:56 am)
Average66 °F78%30.16 "Hg
* Reported Mar 13 9:56 pm — Mar 28 9:56 pm, Summerville. Weather by CustomWeather, © 2020

Note: Actual official high and low records may vary slightly from our data, if they occured in-between our weather recording intervals... More about our weather records

Summerville Weather History for the Previous 24 Hours

Scroll right to see more
 ConditionsComfort  
Time TempWeatherWind HumidityBarometerVisibility
9:56 pm
Sat, Mar 28
70 °FPassing clouds.13 mph87%30.02 "Hg10 mi
8:56 pm71 °FPassing clouds.14 mph81%30.01 "Hg10 mi
7:56 pm73 °FPassing clouds.14 mph66%29.98 "Hg10 mi
6:56 pm77 °FPassing clouds.17 mph52%29.98 "Hg10 mi
5:56 pm80 °FScattered clouds.16 mph52%29.96 "Hg10 mi
4:56 pm82 °FScattered clouds.18 mph53%29.96 "Hg10 mi
3:56 pm84 °FPassing clouds.16 mph53%29.96 "Hg10 mi
2:56 pm85 °FPassing clouds.16 mph53%29.98 "Hg10 mi
1:56 pm85 °FPassing clouds.18 mph53%29.99 "Hg10 mi
12:56 pm83 °FPassing clouds.12 mph59%30.01 "Hg10 mi
11:56 am81 °FPassing clouds.13 mph62%30.02 "Hg10 mi
10:56 am78 °FPassing clouds.9 mph66%30.03 "Hg10 mi
9:56 am75 °FScattered clouds.6 mph74%30.02 "Hg10 mi
8:56 am71 °FScattered clouds.7 mph87%30.02 "Hg10 mi
7:56 am67 °FScattered clouds.7 mph93%30.01 "Hg8 mi
6:56 am66 °FPassing clouds.6 mph96%30.00 "Hg8 mi
5:56 am65 °FClear.5 mph97%29.98 "Hg8 mi
4:56 am65 °FClear.6 mph94%29.97 "Hg9 mi
3:56 am67 °FClear.5 mph90%29.97 "Hg10 mi
2:56 am67 °FClear.7 mph90%29.98 "Hg10 mi
1:56 am66 °FClear.8 mph93%29.99 "Hg10 mi
12:56 am67 °FClear.6 mph90%30.00 "Hg10 mi
11:56 pm
Fri, Mar 27
69 °FClear.8 mph87%30.00 "Hg10 mi
Weather by CustomWeather, © 2020

See weather overview

Advertising